SQ2CET-13 Weather Reports


time (UTC)temp
C
wind
direction
speed
KPH
gust
KPH
rain 1hr
cm
rain 24hr
cm
rain mn
cm
humidity
%
barometer
mb
20260510154131 17 23 3.2 11.3 0.00 0.00 0.00 43 1012.8
20260510153030 17 160 3.2 11.3 0.00 0.00 0.00 43 1012.8
20260510152055 17 77 6.4 12.9 0.00 0.00 0.00 43 1012.9
20260510151118 17 19 4.8 11.3 0.00 0.00 0.00 41 1013.1
20260510150042 18 143 3.2 8.0 0.00 0.00 0.00 41 1013.1
20260510145046 18 297 3.2 9.7 0.00 0.00 0.00 39 1013.3
20260510144110 18 69 4.8 12.9 0.00 0.00 0.00 40 1013.3
20260510143120 21 136 1.6 6.4 0.00 0.00 0.00 35 1013.4
20260510142101 23 64 1.6 8.0 0.00 0.00 0.00 31 1013.6
20260510141101 22 196 1.6 4.8 0.00 0.00 0.00 30 1013.6
20260510140121 20 213 3.2 8.0 0.00 0.00 0.00 33 1013.9
20260510135059 22 202 3.2 8.0 0.00 0.00 0.00 29 1013.9
20260510134055 20 229 4.8 14.5 0.00 0.00 0.00 32 1014.1
20260510133110 20 221 6.4 16.1 0.00 0.00 0.00 32 1014.2
20260510132124 21 227 4.8 14.5 0.00 0.00 0.00 30 1014.2
20260510131039 22 224 4.8 19.3 0.00 0.00 0.00 30 1014.3
20260510125024 23 206 3.2 8.0 0.00 0.00 0.00 30 1014.6
20260510124047 22 210 3.2 12.9 0.00 0.00 0.00 30 1014.8
20260510123110 23 215 3.2 16.1 0.00 0.00 0.00 29 1015.0
20260510122054 22 217 1.6 8.0 0.00 0.00 0.00 29 1015.1
20260510121053 21 234 3.2 9.7 0.00 0.00 0.00 31 1015.2
20260510120117 20 239 3.2 14.5 0.00 0.00 0.00 33 1015.4
20260510115037 19 209 6.4 20.9 0.00 0.00 0.00 34 1015.5
20260510114103 22 221 1.6 4.8 0.00 0.00 0.00 30 1015.7
20260510113021 21 37 3.2 6.4 0.00 0.00 0.00 31 1015.8
20260510112107 21 188 6.4 14.5 0.00 0.00 0.00 32 1016.0
20260510111110 20 220 3.2 8.0 0.00 0.00 0.00 32 1016.2
20260510110031 20 238 3.2 9.7 0.00 0.00 0.00 32 1016.4
20260510105054 21 176 0.0 8.0 0.00 0.00 0.00 32 1016.5
20260510104121 21 127 1.6 4.8 0.00 0.00 0.00 31 1016.8
20260510103039 20 209 3.2 8.0 0.00 0.00 0.00 33 1017.0
20260510102102 18 230 3.2 8.0 0.00 0.00 0.00 34 1017.0
20260510101022 17 213 4.8 14.5 0.00 0.00 0.00 36 1017.0
20260510100045 17 227 4.8 9.7 0.00 0.00 0.00 35 1017.1
20260510095114 17 220 6.4 12.9 0.00 0.00 0.00 35 1017.3
20260510094030 17 212 4.8 16.1 0.00 0.00 0.00 35 1017.2
20260510093054 16 211 3.2 14.5 0.00 0.00 0.00 36 1017.2
20260510092118 17 210 4.8 14.5 0.00 0.00 0.00 34 1017.3
20260510091121 19 193 1.6 8.0 0.00 0.00 0.00 31 1017.5
20260510085022 17 196 1.6 8.0 0.00 0.00 0.00 33 1017.5
20260510084047 16 223 1.6 9.7 0.00 0.00 0.00 34 1017.7
20260510083101 15 215 4.8 11.3 0.00 0.00 0.00 36 1018.1
20260510082022 15 231 6.4 16.1 0.00 0.00 0.00 36 1018.2
20260510081049 17 177 3.2 6.4 0.00 0.00 0.00 33 1018.3
20260510080110 16 180 1.6 8.0 0.00 0.00 0.00 34 1018.2
20260510075028 16 217 1.6 4.8 0.00 0.00 0.00 33 1018.3
20260510074045 16 221 1.6 8.0 0.00 0.00 0.00 35 1018.4
20260510073152 15 215 1.6 4.8 0.00 0.00 0.00 36 1018.7
20260510072030 16 179 1.6 4.8 0.00 0.00 0.00 34 1018.7
20260510071054 16 206 1.6 3.2 0.00 0.00 0.00 36 1018.7
20260510065119 15 341 0.0 3.2 0.00 0.00 0.00 47 1018.9
20260510064039 15 326 0.0 3.2 0.00 0.00 0.00 47 1019.0
20260510063104 15 252 1.6 3.2 0.00 0.00 0.00 49 1019.0
20260510062022 13 0.0 3.2 0.00 0.00 0.00 52 1019.2
20260510061105 12 0.0 3.2 0.00 0.00 0.00 51 1019.3
20260510060112 11 163 0.0 3.2 0.00 0.00 0.00 59 1019.2
20260510055042 11 236 1.6 4.8 0.00 0.00 0.00 60 1019.4
20260510054047 13 0.0 3.2 0.00 0.00 0.00 53 1019.4
20260510053112 13 0.0 1.6 0.00 0.00 0.00 54 1019.5
20260510052029 12 0.0 0.0 0.00 0.00 0.00 56 1019.3
20260510051054 11 0.0 1.6 0.00 0.00 0.00 61 1019.5
20260510050139 11 0.0 0.0 0.00 0.00 0.00 60 1019.5
20260510045039 12 0.0 0.0 0.00 0.00 0.00 57 1019.5
20260510044103 11 0.0 0.0 0.00 0.00 0.00 63 1019.7
20260510043042 8 0.0 1.6 0.00 0.00 0.00 67 1019.8
20260510042106 6 235 1.6 4.8 0.00 0.00 0.00 73 1019.8
20260510041110 8 185 0.0 3.2 0.00 0.00 0.00 68 1020.1
20260510040051 7 196 0.0 3.2 0.00 0.00 0.00 74 1020.1
20260510035114 5 0.0 3.2 0.00 0.00 0.00 79 1020.0
20260510033038 2 86 0.0 4.8 0.00 0.00 0.00 86 1020.3
20260510032102 2 56 1.6 4.8 0.00 0.00 0.00 87 1020.2
20260510031028 1 23 1.6 6.4 0.00 0.00 0.00 86 1020.4
20260510030046 2 0.0 3.2 0.00 0.00 0.00 87 1020.4
20260510025130 1 144 1.6 3.2 0.00 0.00 0.00 87 1020.5
20260510024029 2 44 0.0 3.2 0.00 0.00 0.00 86 1020.7
20260510023055 2 38 0.0 3.2 0.00 0.00 0.00 87 1020.6
20260510022119 2 229 1.6 3.2 0.00 0.00 0.00 85 1020.7
20260510021039 2 237 0.0 3.2 0.00 0.00 0.00 85 1020.6
20260510015046 3 227 1.6 3.2 0.00 0.00 0.00 85 1020.7
20260510014047 2 170 1.6 3.2 0.00 0.00 0.00 85 1020.7
20260510013109 2 196 1.6 4.8 0.00 0.00 0.00 84 1020.6
20260510012030 2 189 3.2 3.2 0.00 0.00 0.00 85 1020.7
20260510011116 2 33 1.6 3.2 0.00 0.00 0.00 85 1020.7
20260510010119 2 46 0.0 3.2 0.00 0.00 0.00 85 1020.8
20260510005031 2 318 0.0 3.2 0.00 0.00 0.00 85 1020.9
20260510004055 2 196 1.6 4.8 0.00 0.00 0.00 85 1020.9
20260510003118 2 192 1.6 4.8 0.00 0.00 0.00 84 1021.0
20260510002039 2 0.0 0.0 0.00 0.00 0.00 86 1021.1
20260510001123 2 0.0 3.2 0.00 0.00 0.00 86 1021.2
20260510000022 2 208 0.0 4.8 0.00 0.00 0.00 86 1021.2
20260509235045 2 0.0 3.2 0.00 0.00 0.00 86 1021.3
20260509234112 2 0.0 0.0 0.00 0.00 0.00 87 1021.4
20260509233030 2 0.0 0.0 0.00 0.00 0.00 87 1021.4
20260509232115 2 0.0 1.6 0.00 0.00 0.00 87 1021.6
20260509231118 2 0.0 3.2 0.00 0.00 0.00 87 1021.8
20260509230051 2 0.0 1.6 0.00 0.00 0.00 87 1021.8
20260509225055 2 0.0 1.6 0.00 0.00 0.00 87 1022.0
20260509224118 2 0.0 1.6 0.00 0.00 0.00 86 1022.1
20260509223040 2 0.0 1.6 0.00 0.00 0.00 85 1022.0
20260509222103 2 0.0 0.0 0.00 0.00 0.00 84 1022.2
20260509221021 3 0.0 1.6 0.00 0.00 0.00 84 1022.2
20260509220047 3 0.0 0.0 0.00 0.00 0.00 85 1022.3
20260509215150 3 0.0 0.0 0.00 0.00 0.00 84 1022.2
20260509214022 3 0.0 0.0 0.00 0.00 0.00 83 1022.3
20260509213046 4 0.0 1.6 0.00 0.00 0.00 84 1022.2
20260509212110 3 0.0 1.6 0.00 0.00 0.00 86 1022.1
20260509211029 2 0.0 1.6 0.00 0.00 0.00 85 1022.1
20260509210116 3 0.0 0.0 0.00 0.00 0.00 84 1022.1
20260509205119 3 0.0 0.0 0.00 0.00 0.00 82 1022.2
20260509204058 3 0.0 0.0 0.00 0.00 0.00 80 1022.2
20260509203116 5 0.0 0.0 0.00 0.00 0.00 80 1022.1
20260509202120 5 0.0 0.0 0.00 0.00 0.00 80 1022.4
20260509201059 5 0.0 0.0 0.00 0.00 0.00 80 1022.4
20260509200103 5 0.0 1.6 0.00 0.00 0.00 79 1022.5
20260509195022 5 0.0 0.0 0.00 0.00 0.00 77 1022.4
20260509194047 5 0.0 0.0 0.00 0.00 0.00 76 1022.5
20260509193110 6 0.0 0.0 0.00 0.00 0.00 73 1022.5
20260509192033 7 19 0.0 1.6 0.00 0.00 0.00 69 1022.5
20260509191055 7 0.0 0.0 0.00 0.00 0.00 65 1022.6
20260509190118 7 0.0 0.0 0.00 0.00 0.00 60 1022.5
20260509185038 8 0.0 1.6 0.00 0.00 0.00 58 1022.4
20260509184102 9 0.0 1.6 0.00 0.00 0.00 56 1022.3
20260509183022 10 54 0.0 3.2 0.00 0.00 0.00 53 1022.4
20260509182047 11 56 1.6 4.8 0.00 0.00 0.00 50 1022.4
20260509181131 12 83 0.0 4.8 0.00 0.00 0.00 47 1022.4
20260509180024 13 46 1.6 4.8 0.00 0.00 0.00 43 1022.4
20260509175106 13 68 1.6 4.8 0.00 0.00 0.00 41 1022.4
20260509174111 14 56 1.6 6.4 0.00 0.00 0.00 42 1022.4
20260509173031 14 59 3.2 8.0 0.00 0.00 0.00 42 1022.4
20260509172055 15 50 3.2 9.7 0.00 0.00 0.00 42 1022.5
20260509171110 16 51 3.2 4.8 0.00 0.00 0.00 41 1022.5
20260509170030 15 56 3.2 8.0 0.00 0.00 0.00 41 1022.6
20260509165054 15 49 3.2 6.4 0.00 0.00 0.00 43 1022.7
20260509164118 15 63 3.2 8.0 0.00 0.00 0.00 42 1022.6
20260509163032 15 73 1.6 8.0 0.00 0.00 0.00 39 1022.6
20260509162055 16 55 1.6 9.7 0.00 0.00 0.00 39 1022.7
20260509161119 16 37 3.2 6.4 0.00 0.00 0.00 39 1022.9
20260509160039 16 24 3.2 9.7 0.00 0.00 0.00 39 1022.9
20260509155102 16 47 3.2 8.0 0.00 0.00 0.00 39 1023.0